Previsão horária em Abizanda

Hoje, 18 Maio, Terça-feira

Tempo Temperatura Precipitação Vento Pressão Humidade
00:00 +12°C° 0 mm 1 m/s 710 mmHg 58%
01:00 +12°C° 0 mm 1 m/s 710 mmHg 59%
02:00 +11°C° 0 mm 1 m/s 710 mmHg 60%
03:00 +11°C° 0 mm 1 m/s 710 mmHg 61%
04:00 +12°C° 0 mm 1 m/s 710 mmHg 61%
05:00 +11°C° 0 mm 0 m/s 710 mmHg 61%
06:00 +12°C° 0 mm 0 m/s 710 mmHg 60%
07:00 +14°C° 0 mm 1 m/s 710 mmHg 58%
08:00 +15°C° 0 mm 1 m/s 710 mmHg 55%
09:00 +16°C° 0 mm 1 m/s 710 mmHg 52%
10:00 +16°C° 0 mm 1 m/s 710 mmHg 54%
11:00 +16°C° 0 mm 1 m/s 710 mmHg 56%
12:00 +16°C° 0 mm 1 m/s 709 mmHg 58%
13:00 +18°C° 0 mm 2 m/s 709 mmHg 53%
14:00 +20°C° 0 mm 3 m/s 709 mmHg 49%
15:00 +22°C° 0 mm 4 m/s 708 mmHg 44%
16:00 +21°C° 0 mm 4 m/s 708 mmHg 49%
17:00 +21°C° 0 mm 4 m/s 708 mmHg 53%
18:00 +20°C° 0 mm 3 m/s 708 mmHg 58%
19:00 +18°C° 0 mm 3 m/s 708 mmHg 63%
20:00 +16°C° 0 mm 3 m/s 708 mmHg 68%
21:00 +15°C° 0 mm 2 m/s 709 mmHg 74%
22:00 +14°C° 0 mm 2 m/s 709 mmHg 75%
23:00 +13°C° 0 mm 2 m/s 709 mmHg 76%

Amanhã, 19 Maio, Quarta-feira

Tempo Temperatura Precipitação Vento Pressão Humidade
00:00 +12°C° 0 mm 2 m/s 709 mmHg 76%
01:00 +12°C° 0 mm 2 m/s 709 mmHg 77%
02:00 +10°C° 0 mm 2 m/s 709 mmHg 77%
03:00 +10°C° 0 mm 2 m/s 709 mmHg 78%
04:00 +10°C° 0 mm 2 m/s 710 mmHg 74%
05:00 +10°C° 0 mm 2 m/s 710 mmHg 71%
06:00 +12°C° 0 mm 2 m/s 711 mmHg 68%
07:00 +14°C° 0 mm 2 m/s 711 mmHg 59%
08:00 +16°C° 0 mm 1 m/s 711 mmHg 50%
09:00 +19°C° 0 mm 1 m/s 712 mmHg 41%
10:00 +19°C° 0 mm 2 m/s 712 mmHg 37%
11:00 +21°C° 0 mm 2 m/s 711 mmHg 32%
12:00 +23°C° 0 mm 2 m/s 711 mmHg 27%
13:00 +24°C° 0 mm 3 m/s 711 mmHg 26%
14:00 +24°C° 0 mm 3 m/s 711 mmHg 25%
15:00 +25°C° 0 mm 3 m/s 711 mmHg 24%
16:00 +22°C° 0 mm 3 m/s 711 mmHg 30%
17:00 +21°C° 0 mm 3 m/s 711 mmHg 35%
18:00 +19°C° 0 mm 3 m/s 711 mmHg 41%
19:00 +17°C° 0 mm 3 m/s 711 mmHg 48%
20:00 +14°C° 0 mm 3 m/s 712 mmHg 56%
21:00 +11°C° 0 mm 3 m/s 712 mmHg 63%
22:00 +11°C° 0 mm 3 m/s 712 mmHg 62%
23:00 +10°C° 0 mm 2 m/s 713 mmHg 61%

Depois de amanhã, 20 Maio, Quinta-feira

Tempo Temperatura Precipitação Vento Pressão Humidade
00:00 +9°C° 0 mm 2 m/s 713 mmHg 60%
01:00 +10°C° 0 mm 1 m/s 713 mmHg 58%
02:00 +10°C° 0 mm 1 m/s 713 mmHg 56%
03:00 +9°C° 0 mm 1 m/s 713 mmHg 54%
04:00 +10°C° 0 mm 1 m/s 713 mmHg 52%
05:00 +11°C° 0 mm 1 m/s 713 mmHg 50%
06:00 +11°C° 0 mm 0 m/s 713 mmHg 48%
07:00 +14°C° 0 mm 1 m/s 713 mmHg 44%
08:00 +16°C° 0 mm 1 m/s 713 mmHg 41%
09:00 +18°C° 0 mm 2 m/s 713 mmHg 38%
10:00 +19°C° 0 mm 2 m/s 713 mmHg 36%
11:00 +21°C° 0 mm 2 m/s 713 mmHg 33%
12:00 +23°C° 0 mm 2 m/s 713 mmHg 31%
13:00 +24°C° 0 mm 2 m/s 713 mmHg 31%
14:00 +24°C° 0 mm 3 m/s 712 mmHg 31%
15:00 +25°C° 0 mm 3 m/s 712 mmHg 30%
16:00 +24°C° 0 mm 2 m/s 712 mmHg 34%
17:00 +23°C° 0 mm 2 m/s 712 mmHg 38%
18:00 +23°C° 0 mm 2 m/s 712 mmHg 41%
19:00 +20°C° 0 mm 1 m/s 712 mmHg 48%
20:00 +18°C° 0 mm 1 m/s 712 mmHg 55%
21:00 +15°C° 0 mm 1 m/s 712 mmHg 62%
22:00 +14°C° 0 mm 1 m/s 711 mmHg 64%
23:00 +14°C° 0 mm 1 m/s 711 mmHg 66%

21 Maio, Sexta-feira

Tempo Temperatura Precipitação Vento Pressão Humidade
00:00 +14°C° 0 mm 1 m/s 711 mmHg 69%
01:00 +13°C° 0 mm 1 m/s 711 mmHg 69%
02:00 +13°C° 0 mm 1 m/s 710 mmHg 69%
03:00 +13°C° 0 mm 1 m/s 710 mmHg 69%
04:00 +14°C° 0 mm 1 m/s 710 mmHg 67%
05:00 +14°C° 0 mm 1 m/s 710 mmHg 64%
06:00 +15°C° 0 mm 1 m/s 710 mmHg 61%
07:00 +18°C° 0 mm 1 m/s 710 mmHg 56%
08:00 +19°C° 0 mm 2 m/s 709 mmHg 50%
09:00 +21°C° 0 mm 2 m/s 709 mmHg 44%
10:00 +22°C° 0 mm 3 m/s 709 mmHg 44%
11:00 +24°C° 0 mm 3 m/s 708 mmHg 44%
12:00 +25°C° 0 mm 3 m/s 708 mmHg 44%
13:00 +25°C° 0 mm 4 m/s 707 mmHg 44%
14:00 +26°C° 0 mm 4 m/s 707 mmHg 44%
15:00 +26°C° 0 mm 4 m/s 706 mmHg 44%
16:00 +25°C° 0.2 mm 3 m/s 706 mmHg 50%
17:00 +22°C° 0.2 mm 3 m/s 705 mmHg 55%
18:00 +21°C° 0.2 mm 2 m/s 705 mmHg 61%
19:00 +19°C° 0.3 mm 2 m/s 705 mmHg 68%
20:00 +19°C° 0.3 mm 1 m/s 705 mmHg 75%
21:00 +16°C° 0.3 mm 1 m/s 705 mmHg 81%
22:00 +16°C° 0.2 mm 1 m/s 705 mmHg 82%
23:00 +15°C° 0.2 mm 1 m/s 705 mmHg 83%

22 Maio, Sábado

Tempo Temperatura Precipitação Vento Pressão Humidade
00:00 +15°C° 0.2 mm 1 m/s 705 mmHg 84%
01:00 +15°C° 0.1 mm 1 m/s 705 mmHg 87%
02:00 +14°C° 0.1 mm 1 m/s 705 mmHg 89%
03:00 +13°C° 0.1 mm 1 m/s 705 mmHg 92%
04:00 +13°C° 0 mm 1 m/s 705 mmHg 90%
05:00 +13°C° 0 mm 1 m/s 705 mmHg 88%
06:00 +13°C° 0 mm 1 m/s 706 mmHg 86%
07:00 +15°C° 0 mm 2 m/s 706 mmHg 72%
08:00 +16°C° 0 mm 3 m/s 706 mmHg 58%
09:00 +18°C° 0 mm 3 m/s 707 mmHg 44%
10:00 +19°C° 0 mm 4 m/s 707 mmHg 37%
11:00 +20°C° 0 mm 4 m/s 707 mmHg 30%
12:00 +21°C° 0 mm 5 m/s 707 mmHg 24%
13:00 +20°C° 0 mm 5 m/s 707 mmHg 26%
14:00 +19°C° 0 mm 5 m/s 707 mmHg 27%
15:00 +19°C° 0 mm 5 m/s 707 mmHg 29%
16:00 +18°C° 0 mm 4 m/s 707 mmHg 33%
17:00 +18°C° 0 mm 3 m/s 707 mmHg 36%
18:00 +17°C° 0 mm 2 m/s 707 mmHg 40%
19:00 +16°C° 0 mm 2 m/s 708 mmHg 43%
20:00 +15°C° 0 mm 1 m/s 708 mmHg 47%
21:00 +14°C° 0 mm 1 m/s 708 mmHg 50%
22:00 +14°C° 0 mm 1 m/s 709 mmHg 52%
23:00 +13°C° 0 mm 1 m/s 709 mmHg 54%

23 Maio, Domingo

Tempo Temperatura Precipitação Vento Pressão Humidade
00:00 +13°C° 0 mm 1 m/s 709 mmHg 56%
01:00 +13°C° 0.1 mm 1 m/s 709 mmHg 59%
02:00 +12°C° 0.1 mm 1 m/s 709 mmHg 61%
03:00 +12°C° 0.1 mm 1 m/s 710 mmHg 64%
04:00 +12°C° 0.1 mm 1 m/s 710 mmHg 65%
05:00 +12°C° 0.1 mm 1 m/s 710 mmHg 66%
06:00 +12°C° 0.1 mm 1 m/s 710 mmHg 67%
07:00 +14°C° 0 mm 1 m/s 711 mmHg 60%
08:00 +15°C° 0 mm 2 m/s 711 mmHg 53%
09:00 +17°C° 0 mm 2 m/s 711 mmHg 46%
10:00 +18°C° 0 mm 2 m/s 711 mmHg 42%
11:00 +19°C° 0 mm 3 m/s 711 mmHg 39%
12:00 +20°C° 0 mm 3 m/s 711 mmHg 35%
13:00 +21°C° 0 mm 3 m/s 711 mmHg 34%
14:00 +21°C° 0 mm 3 m/s 711 mmHg 33%
15:00 +22°C° 0 mm 4 m/s 711 mmHg 31%
16:00 +21°C° 0 mm 3 m/s 711 mmHg 34%
17:00 +20°C° 0 mm 3 m/s 711 mmHg 36%
18:00 +20°C° 0 mm 2 m/s 711 mmHg 38%
19:00 +18°C° 0 mm 2 m/s 711 mmHg 44%
20:00 +18°C° 0 mm 1 m/s 712 mmHg 51%
21:00 +15°C° 0 mm 1 m/s 712 mmHg 57%
22:00 +14°C° 0 mm 1 m/s 712 mmHg 59%
23:00 +14°C° 0 mm 1 m/s 712 mmHg 60%
Mostrar mais

Necessitamos do seu Consentimento

A Meteoprog e os seus Fornecedores de Serviços podem armazenar e aceder a dados pessoais como cookies, identificadores do dispositivo ou outras tecnologias semelhantes existentes no seu dispositivo e processar estes dados para personalizar conteúdos e anúncios, assim como funcionalidades nas redes sociais e análise de tráfego.

  • Armazenar e/ou aceder a informações no seu dispositivo

    Os cookies, identificadores do dispositivo ou outras informações podem ser armazenados ou acedidos no seu dispositivo, para os fins acima indicados.

  • Anúncios e conteúdos personalizados, medição de anúncios e conteúdos, dados sobre o público-alvo e desenvolvimento de produtos

    Os anúncios e os conteúdos podem ser personalizados com base num perfil. Podem ser adicionados dados adicionais para uma maior personalização dos anúncios e dos conteúdos. A eficácia dos anúncios e dos conteúdos pode ser medida. Podem ser obtidas informações sobre o público que visualizou os anúncios e os conteúdos. Estes dados podem ser usados para desenvolver ou melhorar sistemas, softwares ou a experiência do utilizador.

Ao clicar em "Eu concordo”, permitirá o uso de cookies, identificadores do dispositivo e web beacons mencionados ou outras tecnologias semelhantes. As configurações do navegador do seu dispositivo podem ser alteradas.

Para certos fins, podem ser invocados interesses legítimos ao invés de consentimento. Pode ler mais informação sobre este assunto na nossa Política de Privacidade e Cookies.